[[{"header":{"parameterUnit":"m.s-1","parameterCategory":2,"la1":30.2991,"la2":30.254,"lo1":-89.0895,"lo2":-89.0444,"dy":0.0017,"dx":0.0017,"nx":28,"ny":28,"refTime":"2025-07-09T21:00:00:Z","depth":"0","parameterNumber":2,"parameterNumberName":"U-component_of_CURRENTS"},"data":[0,0,0,0,0,0,0,0,0,0,0,0,0,0,0,0,0,0,0,0,0,0,0,0,0,0,0,0,0,0,0,0,0,0,0,0,0,0,0,0,0,0,0,0,0,0,0,0,0,0,0,0,0,0,0,0,0,0,0.2426,0.2429,0,0.2585,0.2586,0.2586,0.2498,0.2495,0.2492,0.249,0.2602,0.2608,0.2613,0,0,0,0,0,0,0,0,0,0,0,0,0,0.2206,0.2208,0.2425,0.2429,0.2433,0.2585,0.2586,0.2586,0.2498,0.2495,0.2492,0.2488,0.26,0.2607,0.2614,0,0,0,0,0,0,0,0,0,0,0,0,0,0.2311,0.2209,0.2425,0.242,0.2422,0.2585,0.2586,0.2587,0.2499,0.2495,0.2491,0.2487,0.2598,0.2606,0.2615,0.2751,0,0,0.2641,0.2644,0,0,0,0,0,0,0,0,0.2304,0.2316,0.2417,0.2421,0.2424,0.2533,0.2551,0.2645,0.25,0.2452,0.249,0.2485,0.2589,0.2598,0.2613,0.2757,0.2761,0.2641,0.2646,0.265,0.2652,0,0,0,0,0,0,0,0.2297,0.231,0.2471,0.2422,0.2426,0.2467,0.2473,0.2568,0.2528,0.2456,0.2454,0.2501,0.2587,0.2605,0.2616,0.2763,0.2641,0.2649,0.2654,0.2657,0.2907,0.2908,0,0,0,0,0,0,0.2309,0.2303,0.2467,0.2478,0.2372,0.2475,0.2481,0.2488,0.2528,0.2535,0.2504,0.2496,0.2593,0.2606,0.2619,0.2691,0.265,0.2658,0.2663,0.2905,0.2907,0.2909,0,0,0,0,0,0,0.2303,0.232,0.246,0.241,0.2432,0.2483,0.2491,0.2494,0.2498,0.2569,0.257,0.2506,0.259,0.2608,0.2657,0.2698,0.2662,0.2669,0.2903,0.2906,0.2908,0.2895,0,0,0,0,0,0,0.2295,0.2316,0.2316,0.241,0.2437,0.2559,0.2498,0.25,0.2543,0.2532,0.2573,0.2579,0.2588,0.2644,0.2666,0.2709,0.2676,0.2901,0.2904,0.2907,0.2894,0.2897,0.29,0,0,0,0,0,0.2286,0.2309,0.2313,0.2335,0.2435,0.2564,0.258,0.2591,0.2547,0.2571,0.2557,0.2576,0.2678,0.2653,0.2677,0.2724,0.29,0.2904,0.2907,0.2893,0.2896,0.29,0,0,0,0,0,0,0.2232,0.2308,0.2312,0.2359,0.2459,0.2555,0.2587,0.2603,0.2615,0.259,0.2604,0.2612,0.2682,0.2709,0.2679,0.2803,0.2794,0.2802,0.2774,0.2779,0.2782,0.2807,0.2683,0,0,0,0,0,0.2225,0.2249,0.2352,0.2405,0.2439,0.2512,0.2561,0.2587,0.2631,0.2629,0.2648,0.2674,0.2729,0.2747,0.281,0.2885,0.2995,0.293,0.2933,0.2935,0.2972,0.317,0.3196,0.292,0.292,0.292,0,0,0.2246,0.2279,0.2308,0.2396,0.2453,0.2509,0.2523,0.2616,0.2642,0.2651,0.2656,0.2708,0.2756,0.2818,0.2852,0.2833,0.3069,0.294,0.2941,0.2978,0.3177,0.3205,0.3229,0.2923,0.2922,0.2922,0,0,0.23,0.2302,0.2337,0.239,0.2493,0.2535,0.2562,0.2652,0.2653,0.2712,0.2711,0.2772,0.2842,0.2879,0.2907,0.2979,0.3094,0.3001,0.3025,0.3215,0.3241,0.3264,0.3431,0.3469,0.2983,0.2983,0.2983,0,0.2308,0.2352,0.2386,0.2417,0.2467,0.2534,0.2595,0.2619,0.271,0.2755,0.2705,0.2862,0.2873,0.2989,0.297,0.299,0.3119,0.2997,0.3222,0.3248,0.3273,0.3438,0.3481,0.2982,0.2983,0.2983,0.2983,0,0.2394,0.2405,0.2435,0.2464,0.2522,0.2601,0.265,0.2698,0.2708,0.2762,0.2888,0.2919,0.3026,0.3024,0.2999,0.3182,0.3226,0.3219,0.3214,0.33,0.3468,0.3513,0.2982,0.2982,0.2982,0.2982,0,0,0.2459,0.2485,0.2486,0.2507,0.255,0.263,0.2659,0.2768,0.284,0.289,0.3023,0.3053,0.3122,0.316,0.3183,0.3293,0.3522,0.3312,0.3323,0.348,0.3968,0.3908,0.3951,0.3574,0.3581,0.3588,0.4012,0,0.2515,0.2574,0.2565,0.2631,0.2679,0.2707,0.2748,0.2843,0.291,0.3044,0.3119,0.3253,0.3157,0.3249,0.334,0.3516,0.3644,0.3409,0.386,0.3874,0.3813,0.4002,0.3869,0.423,0.4057,0.4064,0.407,0,0.2595,0.2621,0.2687,0.2737,0.276,0.2797,0.2928,0.2984,0.3147,0.3215,0.3356,0.3445,0.3624,0.3532,0.3866,0.3737,0.3853,0.395,0.397,0.3959,0.39,0.412,0.432,0.4101,0.414,0.4134,0.4129,0,0.2672,0.2706,0.2761,0.2771,0.2833,0.2878,0.2933,0.3064,0.3168,0.3377,0.3516,0.3713,0.3862,0.4058,0.4185,0.4092,0.457,0.4476,0.4537,0.4534,0.4533,0.4515,0.458,0.4744,0.4743,0.4742,0.4741,0,0.2742,0.2792,0.2799,0.2831,0.2945,0.2955,0.3113,0.319,0.3366,0.3528,0.3634,0.3811,0.4006,0.4254,0.4354,0.4606,0.4725,0.462,0.4672,0.4518,0.4495,0.4389,0.427,0.4758,0.4755,0.4752,0.4749,0,0.2847,0.2836,0.2921,0.2965,0.2986,0.3088,0.3223,0.3351,0.3478,0.3711,0.3804,0.4003,0.4286,0.448,0.4817,0.4828,0.4941,0.5114,0.4896,0.4911,0.469,0.4575,0.4679,0.4544,0.5297,0.5298,0.53,0,0.2918,0.2961,0.3023,0.309,0.3112,0.3235,0.3329,0.3431,0.3548,0.3803,0.3927,0.4232,0.439,0.4855,0.4999,0.5272,0.5026,0.5264,0.502,0.4725,0.464,0.4422,0.4282,0.5033,0.5032,0.5031,0.503,0,0.3072,0.308,0.3145,0.3233,0.3321,0.3416,0.3524,0.3613,0.3729,0.389,0.4056,0.4203,0.4582,0.4738,0.5057,0.5199,0.4976,0.5249,0.5048,0.4543,0.4223,0.4098,0.4674,0.5023,0.5024,0.5024,0.5025,0.5025,0.3199,0.3266,0.3298,0.3392,0.3471,0.3497,0.3528,0.3616,0.3728,0.3837,0.404,0.416,0.4418,0.4812,0.4912,0.495,0.4918,0.4847,0.4778,0.4619,0.4328,0.4857,0.5164,0.5165,0.5166,0.5167,0.5168,0,0.3303,0.3339,0.3443,0.3478,0.3493,0.3517,0.3574,0.3544,0.3558,0.3733,0.3837,0.4008,0.4196,0.4377,0.4572,0.4475,0.4304,0.4395,0.4048,0.3965,0.4572,0.4385,0.4408,0.4408,0.4408,0.4409,0.4409,0.4409,0.336,0.3431,0.3438,0.3434,0.3432,0.3355,0.3327,0.3303,0.3358,0.3384,0.3432,0.3552,0.3819,0.4064,0.4031,0.3996,0.3646,0.3613,0.3526,0.3893,0.3926,0.3957,0.375,0.364,0.3639,0.2789,0.2782,0.2777]},{"header":{"parameterUnit":"m.s-1","parameterCategory":2,"la1":30.2991,"la2":30.254,"lo1":-89.0895,"lo2":-89.0444,"dy":0.0017,"dx":0.0017,"nx":28,"ny":28,"refTime":"2025-07-09T21:00:00:Z","depth":"0","parameterNumber":3,"parameterNumberName":"V-component_of_CURRENTS"},"data":[0,0,0,0,0,0,0,0,0,0,0,0,0,0,0,0,0,0,0,0,0,0,0,0,0,0,0,0,0,0,0,0,0,0,0,0,0,0,0,0,0,0,0,0,0,0,0,0,0,0,0,0,0,0,0,0,0,0,0.0002,0.0004,0,0.0086,0.0086,0.0087,0.0037,0.0036,0.0034,0.0033,0.0046,0.0048,0.0049,0,0,0,0,0,0,0,0,0,0,0,0,0,-0.0101,-0.01,0.0002,0.0004,0.0006,0.0086,0.0086,0.0087,0.0037,0.0036,0.0034,0.0032,0.0045,0.0047,0.0049,0,0,0,0,0,0,0,0,0,0,0,0,0,-0.0051,-0.01,0.0002,-0.0001,0.0,0.0086,0.0086,0.0087,0.0038,0.0036,0.0033,0.0031,0.0045,0.0047,0.005,0.0107,0,0,0.0057,0.0058,0,0,0,0,0,0,0,0,-0.0054,-0.0048,-0.0003,-0.0,0.0001,0.0058,0.0056,0.0094,0.0038,0.0012,0.0033,0.003,0.0052,0.0054,0.006,0.0108,0.0109,0.0058,0.0059,0.006,0.0061,0,0,0,0,0,0,0,-0.0057,-0.0051,0.0024,0.0,0.0003,0.0029,0.0032,0.0063,0.0033,0.0014,0.0014,0.0041,0.0051,0.0058,0.006,0.0109,0.0057,0.006,0.0061,0.0062,0.0191,0.0192,0,0,0,0,0,0,-0.0049,-0.0055,0.0022,0.0028,-0.002,0.0033,0.0036,0.0033,0.0035,0.0036,0.0043,0.0039,0.0055,0.0057,0.006,0.0154,0.006,0.0062,0.0064,0.0189,0.0191,0.0193,0,0,0,0,0,0,-0.0052,-0.0044,0.0019,-0.0001,0.001,0.0037,0.0036,0.0037,0.0038,0.0059,0.0056,0.0043,0.0053,0.0057,0.0078,0.0153,0.0064,0.0066,0.0186,0.0189,0.0192,0.0325,0,0,0,0,0,0,-0.0056,-0.0046,-0.0057,-0.0002,0.0012,0.0082,0.0039,0.004,0.0064,0.0058,0.006,0.0059,0.0052,0.0075,0.0081,0.0155,0.0068,0.0184,0.0188,0.0191,0.0318,0.0332,0.0344,0,0,0,0,0,-0.006,-0.0063,-0.0059,-0.0048,-0.0001,0.0086,0.0094,0.01,0.0066,0.0086,0.0068,0.0058,0.0102,0.0078,0.0085,0.0161,0.0182,0.0187,0.0191,0.0313,0.033,0.0344,0,0,0,0,0,0,-0.011,-0.0065,-0.006,-0.005,0.0023,0.0081,0.0096,0.0106,0.0109,0.0095,0.0079,0.0079,0.0132,0.0118,0.0092,0.0205,0.0144,0.015,0.0234,0.025,0.0263,0.03,0.007,0,0,0,0,0,-0.012,-0.0118,-0.0043,-0.0029,0.0002,0.0048,0.0077,0.0103,0.0127,0.0124,0.012,0.0123,0.0161,0.0176,0.0196,0.0257,0.0242,0.0309,0.0322,0.0334,0.0366,0.0375,0.0393,0.0207,0.0207,0.0207,0,0,-0.0122,-0.0105,-0.0096,-0.0038,0.0002,0.0077,0.0056,0.0122,0.0186,0.0129,0.0168,0.0169,0.0183,0.0251,0.0275,0.0247,0.0379,0.0339,0.0349,0.0376,0.0382,0.04,0.0416,0.021,0.021,0.0209,0,0,-0.0094,-0.0118,-0.0083,-0.0032,0.0051,0.0094,0.0117,0.0185,0.0205,0.0267,0.0244,0.0277,0.0315,0.035,0.0373,0.0468,0.0444,0.0478,0.0586,0.0594,0.061,0.0624,0.0633,0.0647,0.0489,0.0489,0.049,0,-0.0098,-0.0046,-0.0049,0.0008,0.0071,0.0103,0.02,0.0234,0.0299,0.0348,0.0292,0.0386,0.0373,0.05,0.0523,0.0505,0.0499,0.0529,0.0613,0.0626,0.0638,0.0644,0.0657,0.0496,0.0496,0.0495,0.0494,0,-0.0015,0.0023,0.005,0.0126,0.0186,0.0274,0.0347,0.0401,0.042,0.0467,0.0573,0.056,0.0626,0.0629,0.0605,0.0715,0.0681,0.0624,0.0577,0.0665,0.0665,0.0677,0.0506,0.0504,0.0502,0.05,0,0,0.0009,0.0096,0.0106,0.0186,0.0265,0.035,0.0441,0.058,0.0676,0.0699,0.0838,0.0862,0.0857,0.0882,0.0868,0.087,0.0927,0.0792,0.0789,0.081,0.0956,0.0936,0.0945,0.0882,0.0885,0.0887,0.0925,0,0.01,0.0234,0.0247,0.0409,0.0513,0.0554,0.0651,0.076,0.0826,0.0948,0.0972,0.1076,0.0957,0.1018,0.1001,0.0975,0.0963,0.0923,0.0862,0.0861,0.0839,0.096,0.0873,0.09,0.0936,0.0938,0.0939,0,0.0214,0.029,0.0451,0.061,0.0656,0.0736,0.0929,0.1028,0.1169,0.1223,0.1307,0.1323,0.1398,0.1254,0.1229,0.1212,0.1095,0.1028,0.1026,0.0975,0.0863,0.0817,0.0919,0.058,0.0955,0.0954,0.0953,0,0.0316,0.0456,0.0594,0.0639,0.0794,0.0881,0.0976,0.1117,0.1253,0.1417,0.1536,0.1578,0.1642,0.1533,0.1392,0.1321,0.1338,0.1215,0.1081,0.1077,0.0978,0.0962,0.0756,0.116,0.116,0.1159,0.1159,0,0.0449,0.0574,0.0648,0.073,0.092,0.0986,0.1201,0.1297,0.148,0.1672,0.1688,0.1844,0.1705,0.17,0.1515,0.1377,0.1427,0.1148,0.1106,0.1022,0.101,0.0688,0.0566,0.1161,0.1161,0.116,0.116,0,0.059,0.063,0.0802,0.0931,0.098,0.1126,0.134,0.1507,0.1642,0.1903,0.1981,0.2074,0.206,0.1915,0.1759,0.1551,0.1265,0.132,0.1243,0.1191,0.0731,0.0623,0.0534,0.0456,0.1199,0.1199,0.1199,0,0.07,0.078,0.0921,0.1018,0.1082,0.1274,0.1421,0.1585,0.1765,0.2046,0.2197,0.2271,0.2331,0.2139,0.18,0.1531,0.1273,0.1254,0.1086,0.0743,0.059,0.0534,0.0471,0.1,0.0999,0.0997,0.0996,0,0.0881,0.089,0.1004,0.1171,0.132,0.1517,0.1725,0.1877,0.2093,0.2291,0.2516,0.2588,0.2407,0.2124,0.1765,0.1528,0.1061,0.1217,0.0875,0.0461,0.0379,0.0269,0.0932,0.0985,0.0986,0.0987,0.0987,0.0988,0.0995,0.1084,0.1175,0.136,0.152,0.1727,0.1886,0.2089,0.2345,0.262,0.2684,0.2777,0.2335,0.183,0.1523,0.0816,0.0929,0.0549,0.0464,0.0451,0.0329,0.0989,0.098,0.0981,0.0982,0.0983,0.0984,0,0.1135,0.1212,0.1368,0.1563,0.1737,0.18,0.2075,0.2223,0.2467,0.2679,0.2836,0.2595,0.2036,0.1465,0.0591,0.0121,-0.0036,-0.0134,-0.0309,-0.0323,0.0235,0.0167,-0.0033,-0.0033,-0.0033,-0.0032,-0.0032,-0.0032,0.1222,0.1366,0.1435,0.1716,0.1839,0.2063,0.2202,0.2398,0.2563,0.2748,0.2753,0.2739,0.2179,0.0642,-0.0429,-0.0641,-0.0957,-0.0976,-0.1062,-0.0837,-0.0784,-0.0734,-0.0836,-0.1244,-0.1245,-0.163,-0.1635,-0.1639]}],[{"header":{"parameterUnit":"m.s-1","parameterCategory":2,"la1":30.2991,"la2":30.254,"lo1":-89.0895,"lo2":-89.0444,"dy":0.0017,"dx":0.0017,"nx":28,"ny":28,"refTime":"2025-07-09T21:00:00:Z","depth":"2","parameterNumber":2,"parameterNumberName":"U-component_of_CURRENTS"},"data":[0,0,0,0,0,0,0,0,0,0,0,0,0,0,0,0,0,0,0,0,0,0,0,0,0,0,0,0,0,0,0,0,0,0,0,0,0,0,0,0,0,0,0,0,0,0,0,0,0,0,0,0,0,0,0,0,0,0,0.0969,0.097,0,0.0995,0.0995,0.0996,0.0982,0.0982,0.0981,0.0981,0.0998,0.0999,0.1,0,0,0,0,0,0,0,0,0,0,0,0,0,0.1152,0.1147,0.0969,0.097,0.097,0.0995,0.0995,0.0996,0.0983,0.0982,0.0981,0.0981,0.0997,0.0999,0.1,0,0,0,0,0,0,0,0,0,0,0,0,0,0.1113,0.1146,0.0969,0.0968,0.0968,0.0995,0.0995,0.0996,0.0983,0.0982,0.0981,0.098,0.0997,0.0998,0.1,0.1025,0,0,0.1004,0.1005,0,0,0,0,0,0,0,0,0.1115,0.1106,0.0968,0.0968,0.0968,0.0986,0.1066,0.1006,0.0983,0.0976,0.0981,0.098,0.0995,0.0996,0.1001,0.1026,0.1026,0.1004,0.1005,0.1006,0.1006,0,0,0,0,0,0,0,0.1117,0.1106,0.0978,0.0968,0.0969,0.105,0.1041,0.1056,0.0988,0.0976,0.0976,0.0981,0.0994,0.0999,0.1001,0.1027,0.1004,0.1006,0.1006,0.1007,0.1123,0.1125,0,0,0,0,0,0,0.1104,0.1107,0.0977,0.0979,0.1043,0.1046,0.1036,0.098,0.0988,0.0989,0.0982,0.0981,0.0997,0.0999,0.1002,0.1109,0.1006,0.1007,0.1008,0.1121,0.1124,0.1126,0,0,0,0,0,0,0.1107,0.109,0.0976,0.105,0.1041,0.1042,0.0981,0.0981,0.099,0.0993,0.0993,0.099,0.0997,0.1,0.103,0.1106,0.1008,0.1009,0.1118,0.1122,0.1125,0.1273,0,0,0,0,0,0,0.1111,0.1089,0.107,0.1046,0.1036,0.1006,0.0982,0.0982,0.0995,0.0993,0.1,0.1001,0.0996,0.1028,0.1031,0.1106,0.101,0.1116,0.112,0.1124,0.1265,0.1281,0.1295,0,0,0,0,0,0.1116,0.1071,0.1067,0.1055,0.0998,0.1007,0.1011,0.1011,0.0996,0.1013,0.1016,0.1001,0.1057,0.1031,0.1034,0.1111,0.1114,0.1119,0.1124,0.1259,0.1278,0.1294,0,0,0,0,0,0,0.1108,0.1066,0.106,0.0995,0.1015,0.1006,0.1022,0.1018,0.1033,0.103,0.1023,0.1025,0.1073,0.1067,0.1038,0.1154,0.1086,0.1092,0.1188,0.1206,0.122,0.1345,0.1011,0,0,0,0,0,0.1106,0.1074,0.106,0.1015,0.1026,0.103,0.104,0.1039,0.1041,0.1046,0.1054,0.1069,0.1098,0.1129,0.1133,0.1206,0.1243,0.1257,0.1272,0.1285,0.1388,0.1508,0.1545,0.1143,0.1143,0.1143,0,0,0.1082,0.1065,0.1039,0.1019,0.103,0.1091,0.1033,0.1045,0.1119,0.1047,0.1134,0.1103,0.1117,0.119,0.1216,0.1202,0.1397,0.1291,0.1302,0.1401,0.1518,0.1558,0.1593,0.1146,0.1145,0.1145,0,0,0.1073,0.1015,0.1025,0.1057,0.109,0.1118,0.1126,0.1135,0.1163,0.1215,0.1198,0.126,0.125,0.1346,0.1375,0.1488,0.1446,0.1423,0.1638,0.1751,0.1787,0.182,0.1835,0.1869,0.1461,0.1462,0.1462,0,0.1102,0.1084,0.1035,0.109,0.1152,0.1141,0.1224,0.1258,0.1281,0.1333,0.1256,0.1358,0.1371,0.1553,0.1595,0.1541,0.1527,0.1567,0.1777,0.1811,0.1842,0.1851,0.1886,0.1469,0.1468,0.1468,0.1467,0,0.1097,0.115,0.1163,0.125,0.1287,0.1358,0.1405,0.1453,0.1464,0.1505,0.1617,0.1638,0.1727,0.1718,0.17,0.1929,0.1813,0.1755,0.1745,0.1893,0.1889,0.1923,0.148,0.1478,0.1475,0.1473,0,0,0.1108,0.1173,0.1204,0.1284,0.1401,0.1419,0.156,0.1696,0.1799,0.1818,0.1977,0.2066,0.2061,0.2105,0.209,0.2219,0.2403,0.2093,0.2095,0.2133,0.256,0.2333,0.2346,0.2339,0.2348,0.2355,0.2439,0,0.1208,0.1336,0.1345,0.1519,0.1618,0.1666,0.1807,0.1898,0.1966,0.21,0.2177,0.2284,0.2212,0.225,0.2384,0.234,0.2511,0.2383,0.2396,0.2398,0.2201,0.2388,0.223,0.2281,0.2471,0.2477,0.2481,0,0.1303,0.1369,0.1552,0.1702,0.1743,0.1842,0.2043,0.2166,0.2354,0.2377,0.2516,0.2526,0.2715,0.2636,0.2775,0.2652,0.2699,0.269,0.269,0.2486,0.2241,0.218,0.2335,0.2537,0.2533,0.2529,0.2525,0,0.1419,0.1557,0.1713,0.1767,0.191,0.1997,0.2101,0.2275,0.2367,0.2596,0.2652,0.2812,0.2864,0.2955,0.2907,0.2844,0.3022,0.2919,0.2805,0.2781,0.2673,0.2626,0.3208,0.3208,0.3208,0.3207,0.3207,0,0.1617,0.1751,0.1762,0.1861,0.1983,0.2079,0.2253,0.2368,0.2556,0.2643,0.2827,0.2894,0.2949,0.3004,0.3004,0.2948,0.3102,0.2927,0.2845,0.2699,0.2656,0.2906,0.287,0.321,0.321,0.3209,0.3209,0,0.1794,0.1861,0.1972,0.2046,0.207,0.2154,0.2259,0.2341,0.2571,0.2702,0.2772,0.2939,0.296,0.3015,0.3099,0.3014,0.3032,0.304,0.2802,0.2692,0.2692,0.2663,0.2901,0.2895,0.289,0.2885,0.2882,0,0.1909,0.1995,0.2014,0.1995,0.2038,0.2123,0.216,0.2336,0.2376,0.2661,0.2685,0.2854,0.285,0.289,0.2848,0.2846,0.2974,0.2686,0.2619,0.2795,0.269,0.2668,0.2646,0.2499,0.2493,0.2488,0.2484,0,0.1971,0.1974,0.1956,0.1959,0.1957,0.1983,0.2044,0.2071,0.2252,0.2382,0.2504,0.2588,0.2665,0.2566,0.2589,0.255,0.2633,0.2568,0.2924,0.2556,0.2412,0.2307,0.2302,0.2437,0.2441,0.2445,0.2447,0.2449,0.1844,0.1826,0.1756,0.1782,0.1794,0.1828,0.1833,0.1859,0.1948,0.2104,0.2196,0.2293,0.2355,0.228,0.2237,0.2217,0.2351,0.2268,0.2289,0.2315,0.2208,0.206,0.1994,0.1996,0.1998,0.2,0.2001,0,0.1519,0.1573,0.1565,0.1548,0.156,0.1688,0.1703,0.1682,0.171,0.1854,0.1936,0.1822,0.1842,0.1961,0.1884,0.1837,0.1865,0.1752,0.184,0.1885,0.1925,0.1804,0.1481,0.148,0.1478,0.1477,0,0,0.1347,0.121,0.1296,0.1277,0.1375,0.138,0.1413,0.1423,0.1489,0.1504,0.1575,0.1743,0.1886,0.1685,0.166,0.1592,0.1721,0.1509,0.1927,0.2077,0.2116,0.2217,0.2077,0,0,0,0,0]},{"header":{"parameterUnit":"m.s-1","parameterCategory":2,"la1":30.2991,"la2":30.254,"lo1":-89.0895,"lo2":-89.0444,"dy":0.0017,"dx":0.0017,"nx":28,"ny":28,"refTime":"2025-07-09T21:00:00:Z","depth":"2","parameterNumber":3,"parameterNumberName":"V-component_of_CURRENTS"},"data":[0,0,0,0,0,0,0,0,0,0,0,0,0,0,0,0,0,0,0,0,0,0,0,0,0,0,0,0,0,0,0,0,0,0,0,0,0,0,0,0,0,0,0,0,0,0,0,0,0,0,0,0,0,0,0,0,0,0,-0.0744,-0.0744,0,-0.0743,-0.0743,-0.0743,-0.0772,-0.0774,-0.0775,-0.0776,-0.0692,-0.0688,-0.0685,0,0,0,0,0,0,0,0,0,0,0,0,0,-0.0631,-0.0633,-0.0743,-0.0744,-0.0744,-0.0743,-0.0743,-0.0742,-0.0772,-0.0774,-0.0775,-0.0776,-0.0693,-0.0689,-0.0685,0,0,0,0,0,0,0,0,0,0,0,0,0,-0.0657,-0.0634,-0.0743,-0.0762,-0.0763,-0.0743,-0.0743,-0.0742,-0.0772,-0.0774,-0.0775,-0.0777,-0.0694,-0.0689,-0.0684,-0.062,0,0,-0.0669,-0.0667,0,0,0,0,0,0,0,0,-0.0655,-0.0661,-0.0759,-0.076,-0.0762,-0.0763,-0.0672,-0.0699,-0.0772,-0.0765,-0.0776,-0.0778,-0.0709,-0.0703,-0.0695,-0.0616,-0.0613,-0.0669,-0.0666,-0.0664,-0.0662,0,0,0,0,0,0,0,-0.0654,-0.066,-0.074,-0.0759,-0.0761,-0.0722,-0.0729,-0.0677,-0.0723,-0.0766,-0.0769,-0.0774,-0.0709,-0.07,-0.0693,-0.0611,-0.0669,-0.0664,-0.0661,-0.066,-0.0513,-0.0512,0,0,0,0,0,0,-0.0667,-0.0659,-0.074,-0.074,-0.0716,-0.0724,-0.0731,-0.0758,-0.0725,-0.0724,-0.0772,-0.0775,-0.0707,-0.0699,-0.069,-0.0631,-0.0664,-0.0659,-0.0656,-0.0513,-0.0512,-0.0511,0,0,0,0,0,0,-0.0665,-0.0675,-0.074,-0.07,-0.0707,-0.0725,-0.0755,-0.0757,-0.0753,-0.0732,-0.0729,-0.0767,-0.0708,-0.0697,-0.0648,-0.0627,-0.0657,-0.0652,-0.0515,-0.0513,-0.0512,-0.05,0,0,0,0,0,0,-0.0662,-0.0675,-0.0689,-0.0703,-0.071,-0.0722,-0.0753,-0.0756,-0.0755,-0.0759,-0.0725,-0.072,-0.0709,-0.0655,-0.0643,-0.0621,-0.0648,-0.0516,-0.0514,-0.0512,-0.0501,-0.0498,-0.0495,0,0,0,0,0,-0.0658,-0.0672,-0.069,-0.0699,-0.0733,-0.0722,-0.072,-0.0735,-0.0753,-0.0739,-0.0726,-0.0721,-0.0636,-0.065,-0.0636,-0.0612,-0.0517,-0.0514,-0.0512,-0.0503,-0.0499,-0.0495,0,0,0,0,0,0,-0.0638,-0.0677,-0.0697,-0.0726,-0.0722,-0.0728,-0.0723,-0.0728,-0.0707,-0.0712,-0.0697,-0.0688,-0.0651,-0.0623,-0.0639,-0.0566,-0.0579,-0.0574,-0.0576,-0.0572,-0.0569,-0.0469,-0.0644,0,0,0,0,0,-0.064,-0.0662,-0.068,-0.0703,-0.0703,-0.071,-0.0706,-0.0712,-0.0702,-0.0696,-0.0677,-0.0653,-0.0626,-0.0595,-0.0573,-0.0507,-0.0507,-0.0487,-0.0484,-0.0481,-0.039,-0.0412,-0.0402,-0.0504,-0.0504,-0.0504,0,0,-0.0643,-0.0665,-0.0681,-0.0699,-0.0704,-0.0671,-0.0711,-0.0704,-0.0667,-0.0684,-0.0633,-0.0645,-0.0613,-0.0567,-0.0544,-0.0538,-0.0469,-0.0479,-0.0477,-0.0385,-0.0408,-0.0398,-0.0389,-0.0503,-0.0503,-0.0503,0,0,-0.0631,-0.0676,-0.0673,-0.0666,-0.0667,-0.0652,-0.0647,-0.0644,-0.0637,-0.0589,-0.061,-0.0575,-0.0541,-0.0498,-0.0475,-0.0421,-0.047,-0.0461,-0.0336,-0.0362,-0.0353,-0.0345,-0.0408,-0.0405,-0.044,-0.044,-0.044,0,-0.0629,-0.0622,-0.0664,-0.0645,-0.0612,-0.0637,-0.0581,-0.0575,-0.0555,-0.0513,-0.0568,-0.0492,-0.048,-0.0385,-0.0379,-0.0404,-0.0462,-0.0362,-0.0357,-0.0349,-0.034,-0.0406,-0.0403,-0.0439,-0.0439,-0.0439,-0.0439,0,-0.0609,-0.0582,-0.0576,-0.055,-0.0524,-0.0484,-0.0472,-0.0444,-0.044,-0.0415,-0.0353,-0.0355,-0.0284,-0.0317,-0.0321,-0.0254,-0.0335,-0.0378,-0.0368,-0.0329,-0.0403,-0.04,-0.0438,-0.0438,-0.0438,-0.0438,0,0,-0.0628,-0.0564,-0.0558,-0.0505,-0.0456,-0.0434,-0.0359,-0.027,-0.0201,-0.0212,-0.0109,-0.0087,-0.0095,-0.0063,-0.0102,-0.0105,-0.0137,-0.0207,-0.0209,-0.0268,-0.025,-0.0385,-0.0397,-0.0226,-0.0223,-0.0221,-0.0354,0,-0.0572,-0.0482,-0.0464,-0.0354,-0.0284,-0.0263,-0.0176,-0.0116,-0.0074,0.0003,0.001,0.0076,-0.0004,0.0019,0.0003,-0.0148,-0.0117,-0.0098,-0.0272,-0.0274,-0.0399,-0.039,-0.0312,-0.0428,-0.0351,-0.035,-0.035,0,-0.0516,-0.0462,-0.0325,-0.0199,-0.0172,-0.0113,0.0035,0.0116,0.0219,0.0232,0.0295,0.0283,0.0283,0.0221,0.0057,0.0035,-0.003,-0.0131,-0.0141,-0.0234,-0.04,-0.0437,-0.0426,-0.0345,-0.0346,-0.0346,-0.0346,0,-0.0437,-0.0344,-0.0214,-0.0183,-0.0064,0.0002,0.0087,0.0208,0.0294,0.0406,0.0449,0.0427,0.0392,0.0276,0.0054,0.0044,-0.0154,-0.0201,-0.0341,-0.0357,-0.0287,-0.0299,-0.0151,-0.0151,-0.0151,-0.0151,-0.015,0,-0.0322,-0.0223,-0.0182,-0.0113,0.0003,0.0083,0.0231,0.031,0.0451,0.0534,0.0585,0.0599,0.0402,0.0258,0.0091,-0.019,-0.0135,-0.0279,-0.0375,-0.0295,-0.0305,-0.0205,-0.021,-0.0156,-0.0154,-0.0153,-0.0153,0,-0.0208,-0.0146,-0.0041,0.0038,0.0064,0.0152,0.0281,0.0372,0.0516,0.0622,0.0664,0.0668,0.0432,0.0235,-0.0012,-0.0174,-0.039,-0.0427,-0.0352,-0.0434,-0.0574,-0.0576,-0.0621,-0.0627,-0.0631,-0.0635,-0.0638,0,-0.0126,-0.0055,0.0004,0.0031,0.007,0.0173,0.0242,0.0389,0.0473,0.0622,0.0658,0.0576,0.0458,0.0032,-0.0224,-0.0524,-0.048,-0.0613,-0.0546,-0.052,-0.0609,-0.0605,-0.0601,-0.0482,-0.0484,-0.0485,-0.0486,0,-0.0062,-0.0048,-0.0015,0.0068,0.0115,0.0188,0.0296,0.0377,0.0531,0.0612,0.0658,0.0617,0.0286,-0.0007,-0.0363,-0.0538,-0.0599,-0.0654,-0.0625,-0.0396,-0.0406,-0.0489,-0.0486,-0.0498,-0.0497,-0.0496,-0.0496,-0.0495,-0.0104,-0.008,-0.0046,0.0052,0.0126,0.0249,0.0355,0.0431,0.0585,0.0745,0.06,0.0563,0.0291,-0.015,-0.0437,-0.0681,-0.0686,-0.0744,-0.0732,-0.072,-0.07,-0.0719,-0.0868,-0.0869,-0.087,-0.0871,-0.0871,0,-0.0202,-0.0124,-0.0062,0.007,0.02,0.0265,0.0418,0.0529,0.0697,0.0724,0.0715,0.0438,0.0182,-0.0085,-0.0439,-0.0718,-0.0647,-0.0797,-0.0611,-0.0601,-0.0592,-0.0557,-0.0692,-0.0692,-0.0692,-0.0692,0,0,-0.0237,-0.0203,-0.0115,0.0109,0.0254,0.0465,0.0593,0.072,0.0811,0.0822,0.0803,0.066,0.0317,0.0094,-0.0255,-0.0444,-0.0445,-0.0483,-0.0604,-0.0332,-0.0318,-0.0554,-0.0491,0,0,0,0,0]}],[{"header":{"parameterUnit":"m.s-1","parameterCategory":2,"la1":30.2991,"la2":30.254,"lo1":-89.0895,"lo2":-89.0444,"dy":0.0017,"dx":0.0017,"nx":28,"ny":28,"refTime":"2025-07-09T21:00:00:Z","depth":"4","parameterNumber":2,"parameterNumberName":"U-component_of_CURRENTS"},"data":[0,0,0,0,0,0,0,0,0,0,0,0,0,0,0,0,0,0,0,0,0,0,0,0,0,0,0,0,0,0,0,0,0,0,0,0,0,0,0,0,0,0,0,0,0,0,0,0,0,0,0,0,0,0,0,0,0,0,0.0429,0.043,0,0.0499,0.0499,0.0499,0.0555,0.0556,0.0557,0.0558,0.0633,0.0634,0.0635,0,0,0,0,0,0,0,0,0,0,0,0,0,0.0306,0.0307,0.0429,0.043,0.0432,0.0498,0.0499,0.0499,0.0555,0.0556,0.0557,0.0559,0.0633,0.0634,0.0635,0,0,0,0,0,0,0,0,0,0,0,0,0,0.0361,0.0308,0.0429,0.0471,0.0476,0.0498,0.0499,0.05,0.0555,0.0556,0.0558,0.0559,0.0632,0.0634,0.0636,0.0616,0,0,0.064,0.0641,0,0,0,0,0,0,0,0,0.0358,0.0365,0.0463,0.0468,0.0474,0.0524,0.0483,0.054,0.0554,0.052,0.0558,0.056,0.0599,0.0603,0.0606,0.0619,0.0622,0.0641,0.0642,0.0642,0.0643,0,0,0,0,0,0,0,0.0354,0.0362,0.0452,0.0465,0.0471,0.0473,0.0483,0.0494,0.0547,0.0523,0.0528,0.0543,0.0601,0.0605,0.0609,0.0623,0.0641,0.0642,0.0643,0.0644,0.0696,0.0697,0,0,0,0,0,0,0.0356,0.0359,0.045,0.0455,0.0423,0.0475,0.0485,0.0502,0.0547,0.0556,0.0542,0.0545,0.0601,0.0607,0.0612,0.0673,0.0642,0.0644,0.0645,0.0696,0.0696,0.0697,0,0,0,0,0,0,0.0353,0.0363,0.0447,0.0412,0.0423,0.0476,0.0495,0.0503,0.0542,0.0562,0.0571,0.0576,0.0603,0.0609,0.0643,0.0673,0.0644,0.0646,0.0695,0.0696,0.0697,0.0742,0,0,0,0,0,0,0.0349,0.0361,0.0379,0.0412,0.0426,0.0485,0.0494,0.0504,0.0549,0.0555,0.0594,0.06,0.0604,0.0641,0.0645,0.0675,0.0647,0.0695,0.0696,0.0696,0.074,0.0744,0.0748,0,0,0,0,0,0.0344,0.0354,0.0379,0.0391,0.0447,0.0486,0.0494,0.0532,0.0549,0.0571,0.0591,0.0601,0.0649,0.0642,0.0647,0.0678,0.0694,0.0695,0.0696,0.0738,0.0744,0.0748,0,0,0,0,0,0,0.0306,0.0362,0.039,0.0418,0.0465,0.0498,0.0525,0.0547,0.0579,0.0596,0.0605,0.0613,0.0654,0.0653,0.0645,0.0693,0.0674,0.0676,0.0704,0.0709,0.0713,0.0721,0.0648,0,0,0,0,0,0.0307,0.0337,0.0391,0.0418,0.0448,0.0492,0.0516,0.0548,0.0579,0.0597,0.062,0.064,0.0654,0.0673,0.0685,0.0711,0.0715,0.0733,0.0737,0.074,0.0748,0.076,0.0766,0.07,0.07,0.07,0,0,0.03,0.0337,0.0354,0.0414,0.0456,0.0496,0.0511,0.0565,0.0597,0.0598,0.0649,0.0658,0.0662,0.0693,0.0711,0.0703,0.0764,0.0741,0.0745,0.0751,0.0762,0.0768,0.0774,0.0701,0.0701,0.0701,0,0,0.0302,0.0341,0.0374,0.0416,0.0491,0.0516,0.054,0.0597,0.0628,0.0668,0.0675,0.07,0.0728,0.0735,0.074,0.0769,0.0783,0.0781,0.0814,0.0826,0.0832,0.0837,0.0867,0.0875,0.0786,0.0786,0.0786,0,0.0294,0.0351,0.0388,0.0435,0.0486,0.0529,0.0587,0.0606,0.0663,0.0694,0.0695,0.0739,0.0744,0.0774,0.0785,0.0781,0.0798,0.0799,0.0832,0.0837,0.0842,0.0871,0.0879,0.0788,0.0788,0.0787,0.0787,0,0.0326,0.0381,0.0407,0.0485,0.0532,0.0591,0.064,0.0674,0.0713,0.0743,0.0796,0.0793,0.0829,0.0824,0.0815,0.0854,0.086,0.0835,0.0823,0.0852,0.0881,0.0888,0.0791,0.079,0.079,0.0789,0,0,0.0293,0.041,0.0425,0.0483,0.0579,0.0618,0.0671,0.0741,0.0777,0.0815,0.087,0.088,0.0902,0.0906,0.0901,0.0898,0.0942,0.0889,0.0888,0.0925,0.0994,0.0967,0.0972,0.093,0.0931,0.0932,0.1008,0,0.0324,0.0421,0.0476,0.0571,0.0634,0.0694,0.074,0.08,0.0839,0.0887,0.0902,0.0944,0.0928,0.0951,0.0954,0.0957,0.0961,0.0925,0.0956,0.0957,0.0934,0.0979,0.0936,0.1013,0.1015,0.1016,0.1017,0,0.0346,0.0417,0.0522,0.0643,0.0679,0.0729,0.0827,0.0878,0.0938,0.097,0.1017,0.1031,0.1076,0.1026,0.1067,0.1054,0.1035,0.1009,0.1011,0.0974,0.0943,0.0974,0.103,0.1029,0.1028,0.1027,0.1026,0,0.0317,0.0449,0.0539,0.0582,0.0708,0.0764,0.0839,0.0913,0.0964,0.1033,0.1065,0.1123,0.1157,0.1154,0.1149,0.1118,0.1167,0.1117,0.1067,0.1066,0.1046,0.1039,0.111,0.111,0.1109,0.1109,0.1109,0,0.0328,0.0394,0.0533,0.0576,0.0667,0.0781,0.0865,0.0921,0.102,0.1072,0.1125,0.1153,0.1185,0.1218,0.1195,0.119,0.1224,0.109,0.1085,0.1065,0.106,0.1052,0.1045,0.1112,0.1111,0.1111,0.111,0,0.0268,0.0367,0.0447,0.0597,0.065,0.0712,0.0873,0.0922,0.1029,0.1093,0.1125,0.1211,0.1258,0.1278,0.1279,0.1248,0.1232,0.12,0.1222,0.1213,0.1109,0.1103,0.1166,0.1165,0.1165,0.1165,0.1165,0,0.0255,0.029,0.0426,0.047,0.054,0.0658,0.0736,0.0893,0.0946,0.1104,0.1123,0.1216,0.1247,0.1273,0.1286,0.1285,0.1233,0.1247,0.1131,0.1128,0.1116,0.111,0.1104,0.1164,0.1164,0.1164,0.1164,0,0.0194,0.0226,0.0285,0.0383,0.047,0.056,0.0694,0.0739,0.0913,0.1002,0.1101,0.1154,0.1204,0.1237,0.1258,0.1232,0.1264,0.1243,0.124,0.1131,0.1127,0.1114,0.1109,0.1163,0.1163,0.1164,0.1164,0,0.0125,0.0127,0.0205,0.029,0.0385,0.0476,0.0552,0.0674,0.0775,0.0966,0.0993,0.11,0.1189,0.1209,0.1227,0.1228,0.1172,0.1124,0.1126,0.1128,0.1078,0.1064,0.1093,0,0,0,0,0,0.0067,0.0077,0.0129,0.0227,0.032,0.0398,0.0534,0.0617,0.0778,0.0824,0.0923,0.0969,0.1046,0.1108,0.1089,0.1168,0.1151,0.1143,0.109,0.1159,0.116,0.1102,0,0,0,0,0,0,0.0026,0.0054,0.0095,0.0178,0.0244,0.0356,0.0448,0.0553,0.0598,0.0751,0.079,0.091,0.0977,0.103,0.1066,0.1081,0.1032,0.1215,0.1213,0.1158,0.1159,0.116,0.1101,0,0,0,0,0]},{"header":{"parameterUnit":"m.s-1","parameterCategory":2,"la1":30.2991,"la2":30.254,"lo1":-89.0895,"lo2":-89.0444,"dy":0.0017,"dx":0.0017,"nx":28,"ny":28,"refTime":"2025-07-09T21:00:00:Z","depth":"4","parameterNumber":3,"parameterNumberName":"V-component_of_CURRENTS"},"data":[0,0,0,0,0,0,0,0,0,0,0,0,0,0,0,0,0,0,0,0,0,0,0,0,0,0,0,0,0,0,0,0,0,0,0,0,0,0,0,0,0,0,0,0,0,0,0,0,0,0,0,0,0,0,0,0,0,0,0.0147,0.0146,0,0.0046,0.0045,0.0043,-0.0015,-0.0016,-0.0016,-0.0016,-0.0149,-0.0152,-0.0156,0,0,0,0,0,0,0,0,0,0,0,0,0,0.0199,0.0198,0.0147,0.0146,0.0144,0.0046,0.0045,0.0043,-0.0015,-0.0016,-0.0016,-0.0016,-0.0148,-0.0152,-0.0156,0,0,0,0,0,0,0,0,0,0,0,0,0,0.0144,0.0198,0.0147,0.0104,0.0099,0.0046,0.0044,0.0043,-0.0015,-0.0016,-0.0016,-0.0016,-0.0147,-0.0152,-0.0157,-0.0183,0,0,-0.0172,-0.0174,0,0,0,0,0,0,0,0,0.0147,0.0142,0.0111,0.0107,0.0101,0.0028,0.0014,-0.0034,-0.0015,0.0027,-0.0016,-0.0016,-0.0092,-0.0102,-0.0121,-0.0189,-0.0195,-0.0173,-0.0176,-0.0178,-0.0179,0,0,0,0,0,0,0,0.0151,0.0146,0.0106,0.011,0.0104,0.0059,0.0052,0.0004,-0.0031,0.0023,0.0019,0.0009,-0.0095,-0.0116,-0.0124,-0.0197,-0.0172,-0.0177,-0.018,-0.0182,-0.0362,-0.0364,0,0,0,0,0,0,0.0171,0.015,0.0109,0.0103,0.0125,0.0059,0.005,0.0051,-0.003,-0.0042,0.001,0.0007,-0.0107,-0.0118,-0.0129,-0.0224,-0.0178,-0.0183,-0.0186,-0.0361,-0.0363,-0.0365,0,0,0,0,0,0,0.0172,0.0168,0.0113,0.0124,0.0114,0.0059,0.006,0.0049,0.0013,-0.004,-0.0053,-0.0018,-0.0108,-0.0122,-0.0192,-0.0228,-0.0185,-0.019,-0.0359,-0.0361,-0.0364,-0.0377,0,0,0,0,0,0,0.0174,0.017,0.017,0.0126,0.0114,0.008,0.006,0.0048,0.0009,0.0004,-0.0068,-0.0079,-0.0109,-0.0184,-0.0197,-0.0234,-0.0193,-0.0356,-0.036,-0.0363,-0.0374,-0.038,-0.0384,0,0,0,0,0,0.0177,0.0185,0.0171,0.0165,0.0119,0.008,0.0069,0.0028,0.0008,-0.0007,-0.0065,-0.0078,-0.0214,-0.019,-0.0205,-0.0244,-0.0355,-0.0359,-0.0363,-0.0372,-0.0379,-0.0384,0,0,0,0,0,0,0.0202,0.0178,0.0162,0.0161,0.0121,0.007,0.0054,0.002,-0.0037,-0.0047,-0.01,-0.0117,-0.0195,-0.0216,-0.0188,-0.0306,-0.0287,-0.0294,-0.0289,-0.0296,-0.0301,-0.0295,-0.0198,0,0,0,0,0,0.021,0.0214,0.0172,0.0168,0.0152,0.0098,0.0074,0.0044,-0.0009,-0.0035,-0.0092,-0.0154,-0.022,-0.0254,-0.0309,-0.0369,-0.0381,-0.0405,-0.0409,-0.0413,-0.042,-0.0474,-0.0484,-0.0377,-0.0377,-0.0377,0,0,0.0221,0.0206,0.0208,0.0174,0.0141,0.0107,0.0082,0.0048,0.0004,-0.004,-0.0121,-0.0177,-0.0242,-0.0316,-0.0352,-0.0338,-0.0446,-0.0418,-0.0421,-0.0426,-0.0479,-0.0489,-0.0498,-0.038,-0.038,-0.0379,0,0,0.0235,0.0228,0.0227,0.0195,0.0148,0.0113,0.01,0.0036,-0.0005,-0.008,-0.0134,-0.0213,-0.03,-0.0364,-0.0404,-0.047,-0.0474,-0.0486,-0.0505,-0.0557,-0.0566,-0.0574,-0.0579,-0.0588,-0.0484,-0.0484,-0.0484,0,0.0242,0.0229,0.0217,0.0194,0.0155,0.0114,0.0075,0.0035,-0.0051,-0.01,-0.0104,-0.0272,-0.0327,-0.0434,-0.0462,-0.0483,-0.0492,-0.0474,-0.0562,-0.0571,-0.0579,-0.0582,-0.0591,-0.0485,-0.0485,-0.0485,-0.0485,0,0.0242,0.0222,0.0216,0.0173,0.0136,0.01,0.0041,-0.0008,-0.0064,-0.012,-0.0235,-0.0312,-0.0417,-0.0445,-0.0478,-0.0574,-0.0554,-0.0563,-0.0541,-0.059,-0.0591,-0.06,-0.0487,-0.0486,-0.0486,-0.0486,0,0,0.0252,0.0223,0.0212,0.0184,0.0113,0.0084,0.0015,-0.0072,-0.0119,-0.0205,-0.0284,-0.0415,-0.0463,-0.0512,-0.0566,-0.0607,-0.0671,-0.0608,-0.061,-0.06,-0.0752,-0.0663,-0.0664,-0.0692,-0.0694,-0.0696,-0.0721,0,0.0233,0.0202,0.0178,0.012,0.0084,0.0027,-0.0031,-0.0108,-0.0175,-0.0249,-0.0344,-0.0431,-0.0485,-0.0532,-0.0596,-0.0649,-0.07,-0.0661,-0.0717,-0.0718,-0.0624,-0.0674,-0.0704,-0.0728,-0.073,-0.0731,-0.0732,0,0.0197,0.0186,0.0131,0.008,0.0059,0.0015,-0.0088,-0.0139,-0.024,-0.0287,-0.0392,-0.0453,-0.0564,-0.0577,-0.0711,-0.068,-0.0735,-0.0758,-0.076,-0.0681,-0.0647,-0.0677,-0.0749,-0.0747,-0.0746,-0.0745,-0.0744,0,0.0164,0.0133,0.0088,0.0065,0.001,-0.0039,-0.0078,-0.0174,-0.0198,-0.0314,-0.0327,-0.048,-0.0525,-0.0632,-0.0699,-0.072,-0.0784,-0.0822,-0.0794,-0.0786,-0.085,-0.0841,-0.0927,-0.0927,-0.0927,-0.0926,-0.0926,0,0.0111,0.0069,0.0075,0.0041,0.0006,-0.0047,-0.0096,-0.0156,-0.0208,-0.0219,-0.035,-0.0369,-0.054,-0.0593,-0.0685,-0.0738,-0.0789,-0.0804,-0.0799,-0.0851,-0.0843,-0.0854,-0.0845,-0.0927,-0.0927,-0.0927,-0.0927,0,0.0038,0.0035,-0.0,-0.0021,-0.0022,-0.0057,-0.0058,-0.0069,-0.0134,-0.0144,-0.0172,-0.0285,-0.0377,-0.0492,-0.063,-0.0687,-0.0759,-0.0768,-0.0764,-0.0757,-0.0737,-0.073,-0.078,-0.0777,-0.0775,-0.0773,-0.0771,0,-0.0004,-0.0031,-0.0018,0.0005,-0.0011,-0.0024,-0.0012,-0.0049,-0.0037,-0.0075,-0.0065,-0.016,-0.0244,-0.035,-0.0501,-0.0654,-0.0682,-0.0707,-0.0797,-0.0738,-0.0729,-0.0725,-0.072,-0.0768,-0.0767,-0.0767,-0.0766,0,-0.0056,-0.0057,-0.0042,0.0007,0.0027,0.0063,0.0077,0.0099,0.0075,0.0051,0.0029,-0.0068,-0.0152,-0.0315,-0.0406,-0.0526,-0.0689,-0.0685,-0.0694,-0.0779,-0.0725,-0.0716,-0.0714,-0.0758,-0.0759,-0.076,-0.076,0,-0.006,-0.0045,0.0001,0.0027,0.0081,0.0117,0.0125,0.0159,0.0163,0.0126,0.0131,0.0001,-0.0086,-0.0243,-0.0325,-0.0429,-0.0504,-0.0549,-0.0567,-0.0577,-0.0516,-0.0417,-0.0358,0,0,0,0,0,-0.0056,-0.0024,0.003,0.0072,0.0126,0.0128,0.0186,0.0198,0.0196,0.02,0.0163,0.0081,-0.0081,-0.0164,-0.026,-0.0322,-0.0531,-0.0436,-0.0594,-0.0715,-0.0724,-0.068,0,0,0,0,0,0,-0.0033,0.0021,0.0037,0.0102,0.0121,0.0171,0.0191,0.0194,0.0197,0.0182,0.0093,0.0059,-0.011,-0.0045,-0.0271,-0.0304,-0.0411,-0.0518,-0.0519,-0.071,-0.0718,-0.0725,-0.0683,0,0,0,0,0]}]]